EW6193 Weather Reports


Display with metric or nautical units.
time (UTC)temp
F
wind
direction
speed
MPH
gust
MPH
rain 1hr
in
rain 24hr
in
rain mn
in
humidity
%
barometer
mb
20260901104556 47 280 0.0 1.0 0.00 0.00 0.00 66 1010.2
20260901103058 48 293 1.0 3.0 0.00 0.00 0.00 65 1010.3
20260901101604 48 273 0.0 4.0 0.00 0.00 0.00 64 1010.4
20260901100057 49 284 4.0 8.0 0.00 0.00 0.00 62 1010.1
20260901094549 49 276 3.0 7.0 0.00 0.00 0.00 63 1010.0
20260901093049 48 260 1.0 3.0 0.00 0.00 0.00 63 1010.0
20260901091547 49 294 0.0 1.0 0.00 0.00 0.00 61 1010.1
20260901090046 50 285 1.0 4.0 0.00 0.00 0.00 58 1010.0
20260901084556 51 264 2.0 6.0 0.00 0.00 0.00 58 1009.8
20260901083045 51 292 5.0 9.0 0.00 0.00 0.00 58 1009.7
20260901081544 51 288 4.0 8.0 0.00 0.00 0.00 57 1009.8
20260901080104 52 267 5.0 10.0 0.00 0.00 0.00 56 1009.7
20260901074544 50 276 2.0 10.0 0.00 0.00 0.00 58 1009.6
20260901073049 50 279 2.0 6.0 0.00 0.00 0.00 59 1009.4
20260901071542 51 281 4.0 8.0 0.00 0.00 0.00 57 1009.2
20260901070041 52 288 4.0 10.0 0.00 0.00 0.00 55 1009.1
20260901064541 52 276 3.0 6.0 0.00 0.00 0.00 54 1009.0
20260901063040 53 259 5.0 11.0 0.00 0.00 0.00 52 1008.9
20260901061539 54 266 6.0 13.0 0.00 0.00 0.00 49 1008.6
20260901060042 55 277 7.0 15.0 0.00 0.00 0.00 48 1008.5
20260901054538 55 291 5.0 13.0 0.00 0.00 0.00 48 1008.5
20260901053050 56 298 7.0 16.0 0.00 0.00 0.00 47 1008.4
20260901051536 57 274 6.0 12.0 0.00 0.00 0.00 45 1008.3
20260901050036 57 288 5.0 15.0 0.00 0.00 0.00 47 1008.4
20260901044535 57 272 8.0 17.0 0.00 0.00 0.00 44 1008.3
20260901043036 58 271 3.0 14.0 0.00 0.00 0.00 47 1008.5
20260901041536 56 42 0.0 5.0 0.00 0.00 0.00 58 1008.8
20260901040031 56 304 1.0 6.0 0.00 0.00 0.00 57 1008.8
20260901034533 54 347 6.0 10.0 0.00 0.00 0.00 62 1009.0
20260901033030 54 93 4.0 10.0 0.00 0.00 0.00 63 1009.0
20260901031529 53 82 3.0 11.0 0.00 0.00 0.00 62 1009.2
20260901030028 54 53 4.0 12.0 0.00 0.00 0.00 62 1009.2
20260901024527 54 72 7.0 11.0 0.00 0.00 0.00 61 1008.9
20260901023027 53 40 5.0 10.0 0.00 0.00 0.00 64 1009.2
20260901021532 53 100 5.0 10.0 0.00 0.00 0.00 61 1009.2
20260901020024 53 35 6.0 10.0 0.00 0.00 0.00 62 1009.3
20260901014523 54 101 6.0 12.0 0.00 0.00 0.00 60 1009.4
20260901013021 54 90 4.0 8.0 0.00 0.00 0.00 63 1009.6
20260901011520 53 90 6.0 10.0 0.00 0.00 0.00 61 1009.5
20260901010033 53 75 6.0 13.0 0.00 0.00 0.00 60 1009.5
20260901004519 53 114 7.0 13.0 0.00 0.00 0.00 59 1009.6
20260901003021 54 105 7.0 11.0 0.00 0.00 0.00 56 1009.7
20260901001526 56 7 3.0 8.0 0.00 0.00 0.00 56 1009.8
20260901000016 55 70 2.0 6.0 0.00 0.00 0.00 59 1010.0
20260831234515 55 93 0.0 5.0 0.00 0.00 0.00 56 1010.0
20260831233032 53 115 3.0 7.0 0.00 0.00 0.00 62 1010.3
20260831231519 53 79 4.0 6.0 0.00 0.00 0.00 64 1010.3
20260831230011 54 347 3.0 6.0 0.00 0.00 0.00 60 1010.4
20260831224511 52 281 0.0 4.0 0.00 0.00 0.00 63 1010.5
20260831223010 53 295 1.0 3.0 0.00 0.00 0.00 65 1010.4
20260831221507 52 290 0.0 3.0 0.00 0.00 0.00 66 1010.5
20260831220010 50 214 1.0 2.0 0.00 0.00 0.00 69 1010.6
20260831214505 48 269 0.0 2.0 0.00 0.00 0.00 73 1010.6
20260831213004 47 267 1.0 4.0 0.00 0.00 0.00 75 1010.5
20260831211502 45 280 2.0 5.0 0.00 0.00 0.00 78 1010.2
20260831210001 44 284 2.0 4.0 0.00 0.00 0.00 80 1010.2
20260831204607 43 281 1.0 4.0 0.00 0.00 0.00 84 1010.4
20260831203107 41 273 3.0 5.0 0.00 0.00 0.00 87 1010.3
20260831201556 39 273 2.0 4.0 0.00 0.00 0.00 89 1010.2
20260831200105 38 281 2.0 6.0 0.00 0.00 0.00 91 1009.9
20260831194634 36 271 3.0 5.0 0.00 0.00 0.00 93 1009.7
20260831193053 34 271 2.0 4.0 0.00 0.00 0.00 93 1009.7
20260831191549 33 274 0.0 0.0 0.00 0.00 0.00 93 1009.4
20260831190055 0 0.0 0.0 0.00 0.00 0.00 1009.2
20260831184541 0 0.0 0.0 0.00 0.00 0.00 1008.8
20260831183037 0 0.0 0.0 0.00 0.00 0.00 1008.4
20260831181532 0 0.0 0.0 0.00 0.00 0.00 1008.1
20260831180028 0 0.0 0.0 0.00 0.00 0.00 1008.0
20260831174523 0 0.0 0.0 0.00 0.00 0.00 1007.8
20260831173019 0 0.0 0.0 0.00 0.00 0.00 1007.8
20260831171518 0 0.0 0.0 0.00 0.00 0.00 1007.6
20260831170023 0 0.0 0.0 0.00 0.00 0.00 1007.6
20260831164508 0 0.0 0.0 0.00 0.00 0.00 1007.4
20260831163002 0 0.0 0.0 0.00 0.00 0.00 1007.3
20260831161558 0 0.0 0.0 0.00 0.00 0.00 1007.3
20260831160053 33 288 0.0 1.0 0.00 0.00 0.00 91 1007.1
20260831154554 33 288 0.0 1.0 0.00 0.00 0.00 90 1007.1
20260831153049 34 272 0.0 2.0 0.00 0.00 0.00 91 1007.0
20260831151545 34 107 0.0 3.0 0.00 0.00 0.00 90 1006.8
20260831150042 34 275 1.0 3.0 0.00 0.00 0.00 90 1006.8
20260831144539 34 274 0.0 0.0 0.00 0.00 0.00 90 1006.5
20260831143037 34 274 0.0 1.0 0.00 0.00 0.00 89 1006.7
20260831141536 35 274 0.0 2.0 0.00 0.00 0.00 89 1006.7
20260831140033 35 337 0.0 2.0 0.00 0.00 0.00 88 1006.3
20260831134527 37 113 0.0 3.0 0.00 0.00 0.00 88 1006.3
20260831133029 37 62 0.0 3.0 0.00 0.00 0.00 86 1006.0
20260831131520 38 67 3.0 5.0 0.00 0.00 0.00 86 1005.7
20260831130015 39 226 0.0 2.0 0.00 0.00 0.00 84 1005.8
20260831124513 40 126 0.0 2.0 0.00 0.00 0.00 84 1005.3
20260831123015 40 66 2.0 5.0 0.00 0.00 0.00 85 1005.1
20260831121506 40 118 0.0 1.0 0.00 0.00 0.00 84 1005.0
20260831120004 41 64 2.0 6.0 0.00 0.00 0.00 84 1004.8
20260831114501 41 61 3.0 7.0 0.00 0.00 0.00 85 1004.5
20260831113103 41 229 0.0 5.0 0.00 0.00 0.00 85 1004.5
20260831111558 41 89 3.0 8.0 0.00 0.00 0.00 85 1004.2
20260831110056 41 17 6.0 10.0 0.00 0.00 0.00 85 1004.0